Location: Bauerbach
(50.4985°N, 10.3912°E)
Time: 08:45:18
(UTC+00:00)

Cosmos 2084 - Pass Details

Date: 13 January 2026
Orbit: 536 x 564 km, 62.8° (Epoch: 19 February)

Event Time Altitude Azimuth Distance (km) Brightness Sun altitude
Exits shadow 04:51:08 26° 197° (SSW) 1,121 4.8 -22.0°
Maximum altitude 04:53:15 56° 129° (SE) 669 3.9 -21.7°
Drops below altitude 10° 04:57:20 10° 51° (NE) 1,845 6.5 -21.0°
Sets 04:59:34 0° 47° (NE) 2,738 7.4 -20.7°
